User: anonymous   Login
Location: Bellerive
(46.9237°N, 7.0223°E)
Time: 15:34:13
(UTC+00:00)
Language:

SPOT 1/Viking Rocket - Orbit

View from above orbital plane
View from above orbital plane
View from above satellite
View from above satellite

Ground track
Ground track

The orbit data is extracted from the following two-line orbital elements,

1 16615U 86019C   20196.14322788 -.00000006  00000-0  13880-4 0  9997
2 16615  98.4757 260.8598 0011137 337.7114  51.5980 14.31800059800184
Epoch (UTC): 14 July 2020 03:26:14
Eccentricity: 0.0011137
inclination: 98.4757°
perigee height: 778 km
apogee height: 794 km
right ascension of ascending node: 260.8598°
argument of perigee: 337.7114°
revolutions per day: 14.31800059
mean anomaly at epoch: 51.5980°
orbit number at epoch: 80018

The dashed part of the orbit path shows where the satellite is in the earth's shadow,  

DLR